EW4504 Weather Reports


time (UTC)temp
F
wind
direction
speed
knots
gust
knots
rain 1hr
in
rain 24hr
in
rain mn
in
humidity
%
barometer
mb
20260505063051 53 0 0.0 0.0 0.00 0.00 0.00 76 1014.5
20260505062531 53 0 0.0 0.0 0.00 0.00 0.00 76 1014.5
20260505062029 53 0 0.0 0.0 0.00 0.00 0.00 76 1014.6
20260505061604 53 0 0.0 0.0 0.00 0.00 0.00 75 1014.6
20260505061031 54 0 0.0 0.0 0.00 0.00 0.00 75 1014.7
20260505060533 54 0 0.0 0.0 0.00 0.00 0.00 75 1014.7
20260505060048 54 0 0.0 0.0 0.00 0.00 0.00 74 1014.6
20260505055530 54 0 0.0 0.0 0.00 0.00 0.00 74 1014.7
20260505055030 54 0 0.0 0.0 0.00 0.00 0.00 74 1014.7
20260505054544 55 0 0.0 0.0 0.00 0.00 0.00 74 1014.8
20260505054032 55 0 0.0 0.0 0.00 0.00 0.00 73 1014.8
20260505053529 55 0 0.0 0.0 0.00 0.00 0.00 73 1014.8
20260505053046 55 0 0.0 0.0 0.00 0.00 0.00 73 1014.8
20260505052533 55 0 0.0 0.0 0.00 0.00 0.00 72 1014.7
20260505052032 56 0 0.0 0.0 0.00 0.00 0.00 72 1014.8
20260505051601 56 0 0.0 0.0 0.00 0.00 0.00 71 1014.7
20260505051033 56 0 0.0 0.0 0.00 0.00 0.00 71 1014.7
20260505050532 56 0 0.0 0.0 0.00 0.00 0.00 71 1014.8
20260505041543 57 0 0.0 0.0 0.00 0.00 0.00 68 1014.7
20260505041031 58 0 0.0 0.0 0.00 0.00 0.00 68 1014.6
20260505040536 58 0 0.0 0.0 0.00 0.00 0.00 67 1014.6
20260505040042 59 0 0.0 0.0 0.00 0.00 0.00 65 1014.6
20260505035530 59 0 0.0 0.0 0.00 0.00 0.00 65 1014.6
20260505035034 59 0 0.0 0.0 0.00 0.00 0.00 65 1014.7
20260505034541 59 0 0.0 0.0 0.00 0.00 0.00 65 1014.7
20260505034029 59 0 0.0 0.0 0.00 0.00 0.00 65 1014.8
20260505033533 59 0 0.0 0.0 0.00 0.00 0.00 65 1014.8
20260505033042 59 0 0.0 0.0 0.00 0.00 0.00 64 1014.8
20260505032532 60 0 0.0 0.0 0.00 0.00 0.00 64 1014.8
20260505032029 60 0 0.0 0.0 0.00 0.00 0.00 63 1014.8
20260505031546 60 0 0.0 0.0 0.00 0.00 0.00 63 1014.7
20260505031031 60 0 0.0 0.0 0.00 0.00 0.00 61 1014.7
20260505030533 61 0 0.0 0.0 0.00 0.00 0.00 61 1014.7
20260505030043 61 0 0.0 0.0 0.00 0.00 0.00 60 1014.7
20260505025530 62 0 0.0 0.0 0.00 0.00 0.00 58 1014.6
20260505025031 62 0 0.0 0.0 0.00 0.00 0.00 58 1014.7
20260505024548 62 0 0.0 0.0 0.00 0.00 0.00 58 1014.7
20260505024031 62 0 0.0 0.0 0.00 0.00 0.00 57 1014.9
20260505023532 63 0 0.0 0.0 0.00 0.00 0.00 57 1014.8
20260505023043 63 0 0.0 0.0 0.00 0.00 0.00 57 1014.7
20260505022533 63 0 0.0 0.0 0.00 0.00 0.00 54 1014.7
20260505022032 64 0 0.0 0.0 0.00 0.00 0.00 54 1014.5
20260505021544 64 0 0.0 0.0 0.00 0.00 0.00 53 1014.5
20260505021031 64 0 0.0 0.0 0.00 0.00 0.00 53 1014.4
20260505020531 64 0 0.0 0.0 0.00 0.00 0.00 52 1014.4
20260505020040 65 0 0.0 0.0 0.00 0.00 0.00 52 1014.4
20260505015530 65 0 0.0 0.0 0.00 0.00 0.00 49 1014.3
20260505015031 66 0 0.0 0.0 0.00 0.00 0.00 49 1014.3
20260505014539 66 0 0.0 0.0 0.00 0.00 0.00 49 1014.3
20260505014031 67 0 0.0 0.0 0.00 0.00 0.00 49 1014.4
20260505013529 67 0 0.0 0.0 0.00 0.00 0.00 48 1014.4
20260505013040 68 0 0.0 0.0 0.00 0.00 0.00 47 1014.2
20260505012532 69 0 0.0 0.0 0.00 0.00 0.00 47 1014.2
20260505012031 69 0 0.0 0.0 0.00 0.00 0.00 45 1014.3
20260505011544 69 0 0.0 0.0 0.00 0.00 0.00 44 1014.3
20260505011032 70 0 0.0 0.0 0.00 0.00 0.00 43 1014.3
20260505010531 70 0 0.0 0.0 0.00 0.00 0.00 43 1014.2
20260505010053 70 0 0.0 0.0 0.00 0.00 0.00 42 1014.2
20260505005532 71 0 0.0 0.0 0.00 0.00 0.00 42 1014.2
20260505005032 71 0 0.0 0.0 0.00 0.00 0.00 41 1014.2
20260505004541 71 0 0.0 0.0 0.00 0.00 0.00 41 1014.1
20260505004031 72 0 0.0 0.0 0.00 0.00 0.00 40 1014.0
20260505003531 72 0 0.0 3.5 0.00 0.00 0.00 40 1014.0
20260505003038 72 0 0.0 3.5 0.00 0.00 0.00 40 1014.0
20260505002533 73 0 0.9 3.5 0.00 0.00 0.00 40 1014.0
20260505002030 73 0 0.9 3.5 0.00 0.00 0.00 39 1014.0
20260505001544 73 190 0.9 4.3 0.00 0.00 0.00 39 1014.0
20260505001030 73 184 1.7 7.0 0.00 0.00 0.00 39 1013.9
20260505000531 73 198 3.5 7.0 0.00 0.00 0.00 39 1013.9
20260505000047 74 190 1.7 7.0 0.00 0.00 0.00 39 1013.8
20260504235531 74 212 3.5 7.8 0.00 0.00 0.00 39 1013.8
20260504235031 74 185 3.5 8.7 0.00 0.00 0.00 39 1013.8
20260504234540 74 202 4.3 8.7 0.00 0.00 0.00 38 1013.8
20260504234031 75 196 4.3 6.1 0.00 0.00 0.00 39 1013.7
20260504233529 75 209 2.6 7.8 0.00 0.00 0.00 38 1013.8
20260504233100 75 212 2.6 8.7 0.00 0.00 0.00 38 1013.9
20260504232530 75 217 3.5 8.7 0.00 0.00 0.00 38 1013.8
20260504232029 75 202 3.5 8.7 0.00 0.00 0.00 37 1013.8
20260504231543 75 188 3.5 7.0 0.00 0.00 0.00 37 1013.8
20260504231029 75 187 3.5 7.0 0.00 0.00 0.00 38 1013.8
20260504230531 76 223 2.6 8.7 0.00 0.00 0.00 38 1013.8
20260504230054 76 242 2.6 13.9 0.00 0.00 0.00 37 1013.7
20260504225533 76 206 5.2 13.9 0.00 0.00 0.00 37 1013.7
20260504225032 76 209 4.3 10.4 0.00 0.00 0.00 38 1013.6
20260504224542 77 209 4.3 9.6 0.00 0.00 0.00 38 1013.6
20260504224032 77 252 4.3 9.6 0.00 0.00 0.00 38 1013.6
20260504223531 77 174 3.5 9.6 0.00 0.00 0.00 39 1013.7
20260504223042 77 126 1.7 5.2 0.00 0.00 0.00 38 1013.7
20260504222531 77 196 1.7 7.0 0.00 0.00 0.00 38 1013.7
20260504222029 77 131 2.6 7.8 0.00 0.00 0.00 39 1013.8
20260504221540 77 219 2.6 8.7 0.00 0.00 0.00 39 1013.8
20260504221030 78 205 1.7 8.7 0.00 0.00 0.00 39 1013.8
20260504220531 78 217 3.5 8.7 0.00 0.00 0.00 39 1013.7
20260504220039 78 200 2.6 11.3 0.00 0.00 0.00 38 1013.8
20260504215531 78 182 4.3 11.3 0.00 0.00 0.00 38 1013.7
20260504215031 78 227 1.7 9.6 0.00 0.00 0.00 38 1013.7
20260504214548 78 169 5.2 9.6 0.00 0.00 0.00 37 1013.8
20260504214032 78 231 4.3 9.6 0.00 0.00 0.00 38 1013.7
20260504213529 78 252 2.6 8.7 0.00 0.00 0.00 36 1013.8
20260504213043 78 209 5.2 8.7 0.00 0.00 0.00 36 1013.8
20260504212530 78 221 1.7 10.4 0.00 0.00 0.00 35 1013.6
20260504212031 79 190 3.5 10.4 0.00 0.00 0.00 35 1013.7
20260504211542 79 194 2.6 6.1 0.00 0.00 0.00 35 1013.7
20260504211029 79 194 2.6 6.1 0.00 0.00 0.00 35 1013.8
20260504210536 78 209 1.7 7.8 0.00 0.00 0.00 35 1013.6
20260504210045 79 91 2.6 7.8 0.00 0.00 0.00 35 1013.7
20260504205530 79 237 3.5 7.8 0.00 0.00 0.00 36 1013.8
20260504205030 79 171 2.6 8.7 0.00 0.00 0.00 36 1013.8
20260504204546 79 115 4.3 8.7 0.00 0.00 0.00 38 1013.8
20260504204031 79 242 2.6 8.7 0.00 0.00 0.00 38 1013.8
20260504203531 79 188 2.6 8.7 0.00 0.00 0.00 38 1013.9
20260504203052 78 213 2.6 7.8 0.00 0.00 0.00 36 1013.8
20260504202529 78 219 3.5 7.8 0.00 0.00 0.00 35 1013.9
20260504202029 78 184 3.5 7.0 0.00 0.00 0.00 36 1013.9
20260504201543 78 290 2.6 7.8 0.00 0.00 0.00 37 1014.0
20260504201030 78 219 2.6 7.8 0.00 0.00 0.00 38 1014.1
20260504200530 78 209 2.6 8.7 0.00 0.00 0.00 38 1014.2
20260504200042 77 204 2.6 8.7 0.00 0.00 0.00 38 1014.4
20260504195532 77 217 1.7 7.0 0.00 0.00 0.00 39 1014.4
20260504195029 78 211 2.6 7.0 0.00 0.00 0.00 38 1014.5
20260504194539 78 232 1.7 7.8 0.00 0.00 0.00 38 1014.6
20260504194031 78 290 3.5 10.4 0.00 0.00 0.00 38 1014.7
20260504193533 78 175 4.3 10.4 0.00 0.00 0.00 38 1014.8
20260504193041 78 229 3.5 7.8 0.00 0.00 0.00 39 1014.8
20260504192529 78 196 1.7 5.2 0.00 0.00 0.00 39 1014.8
20260504192029 77 98 0.9 4.3 0.00 0.00 0.00 38 1014.9
20260504191537 77 40 0.9 7.0 0.00 0.00 0.00 38 1015.1
20260504191029 77 187 1.7 8.7 0.00 0.00 0.00 39 1015.2
20260504190531 77 193 3.5 8.7 0.00 0.00 0.00 39 1015.2
20260504190050 78 315 0.9 5.2 0.00 0.00 0.00 39 1015.3
20260504185532 77 351 1.7 5.2 0.00 0.00 0.00 39 1015.3
20260504185029 77 0 0.9 5.2 0.00 0.00 0.00 41 1015.3
20260504184542 76 229 2.6 7.0 0.00 0.00 0.00 43 1015.4
20260504184030 76 300 2.6 7.0 0.00 0.00 0.00 42 1015.5
20260504183530 76 323 2.6 7.0 0.00 0.00 0.00 41 1015.5
20260504183040 76 347 1.7 7.0 0.00 0.00 0.00 42 1015.6
20260504182531 76 327 2.6 7.0 0.00 0.00 0.00 43 1015.6
20260504182033 76 32 0.9 4.3 0.00 0.00 0.00 43 1015.6
20260504181544 76 228 2.6 5.2 0.00 0.00 0.00 43 1015.7
20260504181031 75 305 2.6 5.2 0.00 0.00 0.00 45 1015.9
20260504180533 75 323 1.7 7.0 0.00 0.00 0.00 43 1015.9
20260504180041 75 296 1.7 7.8 0.00 0.00 0.00 43 1016.1
20260504175530 75 355 2.6 7.8 0.00 0.00 0.00 42 1016.2
20260504175032 75 336 1.7 7.0 0.00 0.00 0.00 42 1016.2
20260504174543 76 5 1.7 7.0 0.00 0.00 0.00 43 1016.3
20260504174030 75 213 1.7 7.0 0.00 0.00 0.00 43 1016.4
20260504173529 75 215 1.7 6.1 0.00 0.00 0.00 43 1016.4
20260504173049 75 161 2.6 6.1 0.00 0.00 0.00 43 1016.5
20260504172530 75 94 1.7 6.1 0.00 0.00 0.00 43 1016.5
20260504172031 75 205 2.6 8.7 0.00 0.00 0.00 44 1016.6
20260504171543 75 213 0.9 8.7 0.00 0.00 0.00 43 1016.6
20260504171031 75 265 2.6 8.7 0.00 0.00 0.00 44 1016.8
20260504170530 75 212 2.6 6.1 0.00 0.00 0.00 44 1016.8
20260504151029 69 281 3.5 9.6 0.00 0.00 0.00 52 1017.8
20260504150534 68 229 1.7 6.1 0.00 0.00 0.00 51 1017.7
20260504141030 62 265 0.0 2.6 0.00 0.00 0.00 69 1017.9
20260504140534 61 0 0.9 2.6 0.00 0.00 0.00 70 1018.0
20260504130531 53 0 0.0 1.7 0.00 0.00 0.00 80 1018.0
20260504110529 43 0 0.0 0.0 0.00 0.00 0.00 87 1017.6
20260504100529 44 0 0.0 0.0 0.00 0.00 0.00 86 1017.6
20260504081545 45 0 0.0 0.0 0.00 0.00 0.00 85 1017.3
20260504081029 45 0 0.0 0.0 0.00 0.00 0.00 84 1017.3
20260504080529 45 0 0.0 0.0 0.00 0.00 0.00 84 1017.4